Location: ???????
(55.4362°N, 38.1183°E)
Time: 01:32:04
(UTC+00:00)

METEOR M2 - Pass Details

Date: 02 December 2021
Orbit: 818 x 827 km, 98.4° (Epoch: 28 January)

Event Time Altitude Azimuth Distance (km) Brightness Sun altitude
Rises 16:39:42 0° 191° (SSW) 3,357 ? -29.6°
Reaches altitude 10° 16:42:15 10° 201° (SSW) 2,428 ? -30.0°
Maximum altitude 16:47:08 34° 266° (W) 1,334 ? -30.7°
Drops below altitude 10° 16:52:02 10° 331° (NNW) 2,440 ? -31.4°
Sets 16:54:37 0° 340° (NNW) 3,376 ? -31.8°
